{"data":{"norad_id":50823,"epoch":"2026-05-25T03:37:37.672608Z","epoch_age_seconds":76073,"freshness":"FRESH","line1":"1 50823U 22001W   26145.15113047  .00000037  00000+0  20394-4 0  9994","line2":"2 50823  53.2131 185.8728 0001041  80.3275 279.7835 15.08835360241956","mean_motion":15.0883536,"eccentricity":0.0001041,"inclination_deg":53.2131,"raan_deg":185.8728,"arg_perigee_deg":80.3275,"mean_anomaly_deg":279.7835,"bstar":2.0394e-5,"rev_number":24195,"period_min":95.4378481692,"perigee_km":539.03741879928,"apogee_km":540.4777244491,"semimajor_km":6917.8945716242,"source":"CELESTRAK","updated_at":"2026-05-25T13:38:16.878257Z"}}